This is the latest recevied weather packets stored in our database for station/object G4WLC-1. If no packets are shown the sender has not sent any weather packets the latest 10 day(s).
| Time | Temp. | Humidity | Pressure | Rain* | Wind** | Luminosity | Snow |
|---|---|---|---|---|---|---|---|
| 1777814589 | 17.22° C | 75% | 1009.7 hPa | 0 mm | - | - | - |
| 1777814289 | 17.22° C | 74% | 1009.9 hPa | 0 mm | - | - | - |
| 1777813989 | 17.22° C | 73% | 1009.8 hPa | 0 mm | - | - | - |
| 1777813689 | 17.22° C | 74% | 1009.7 hPa | 0 mm | - | - | - |
| 1777813389 | 16.67° C | 72% | 1009.7 hPa | 0 mm | - | - | - |
| 1777813089 | 17.22° C | 73% | 1009.8 hPa | 0 mm | - | - | - |
| 1777812789 | 17.22° C | 74% | 1009.7 hPa | 0 mm | - | - | - |
| 1777812489 | 17.22° C | 74% | 1009.8 hPa | 0 mm | - | - | - |
| 1777812189 | 17.22° C | 70% | 1009.8 hPa | 0 mm | - | - | - |
| 1777811889 | 17.22° C | 72% | 1009.8 hPa | 0 mm | - | - | - |
| 1777811589 | 17.22° C | 74% | 1009.8 hPa | 0 mm | - | - | - |
| 1777811289 | 16.67° C | 75% | 1009.7 hPa | 0 mm | - | - | - |
| 1777810989 | 16.67° C | 76% | 1009.8 hPa | 0 mm | - | - | - |
| 1777810689 | 16.67° C | 77% | 1009.8 hPa | 0 mm | - | - | - |
| 1777810389 | 16.11° C | 78% | 1009.9 hPa | 0 mm | - | - | - |
| 1777810089 | 16.11° C | 79% | 1009.8 hPa | 0 mm | - | - | - |
| 1777809789 | 15.56° C | 80% | 1009.7 hPa | 0 mm | - | - | - |
| 1777809489 | 15° C | 79% | 1009.7 hPa | 0 mm | - | - | - |
| 1777809189 | 14.44° C | 80% | 1009.7 hPa | 0 mm | - | - | - |
| 1777808889 | 14.44° C | 81% | 1009.8 hPa | 0 mm | - | - | - |
| 1777808589 | 14.44° C | 81% | 1009.8 hPa | 0 mm | - | - | - |
| 1777808289 | 14.44° C | 80% | 1009.7 hPa | 0 mm | - | - | - |
| 1777807989 | 14.44° C | 79% | 1009.8 hPa | 0 mm | - | - | - |
| 1777807689 | 14.44° C | 80% | 1009.8 hPa | 0 mm | - | - | - |
| 1777807389 | 14.44° C | 79% | 1009.7 hPa | 0 mm | - | - | - |
* Rain latest hour (hover to see other rain measurements)
** Current wind speed in m/s (hover to see current wind gust speed)